Hourly Data Report for September 20, 2017

All times are specified in Local Standard Time (LST). Add 1 hour to adjust for Daylight Saving Time where and when it is observed.

FREDERICTON
NEW BRUNSWICK

45°52'08.000" N
66°32'14.000" W
20.70 m
8101505
71700
YFC

Download Data

Hourly Data (September 2017)
Hourly Data Report for September 20, 2017
Temp Definition
°C
Dew Point Temp Definition
°C
Rel Hum Definition
%
Wind Dir Definition
10's deg

Wind Spd Definition
km/h
Visibility Definition
km
Stn Press Definition
kPa
Hmdx Definition


Wind Chill Definition


Weather Definition


TIME
00:00 Legend Double Dagger 18.3 17.7 96   0 16.1 101.70     LegendNANA
01:00 Legend Double Dagger 18.2 17.6 96 34 5 16.1 101.67     LegendNANA
02:00 Legend Double Dagger 18.4 17.8 96   0 16.1 101.65     LegendNANA
03:00 Legend Double Dagger 18.4 17.8 96 LegendMM 4 16.1 101.60     LegendNANA
04:00 Legend Double Dagger 18.6 17.8 95   0 16.1 101.58     LegendNANA
05:00 Legend Double Dagger 18.5 18.0 97 12 5 4.0 101.55     Fog
06:00 Legend Double Dagger 18.3 17.8 97   0 6.4 101.55     Fog
07:00 Legend Double Dagger 18.7 18.2 97 35 8 4.8 101.56     Fog
08:00 Legend Double Dagger 18.9 18.4 97 4 8 4.8 101.55     Fog
09:00 Legend Double Dagger 19.7 18.7 94 7 8 16.1 101.55     LegendNANA
10:00 Legend Double Dagger 20.3 18.9 92 4 9 16.1 101.54 27   LegendNANA
11:00 Legend Double Dagger 20.8 19.0 89 3 8 16.1 101.49 28   LegendNANA
12:00 Legend Double Dagger 21.5 19.2 87 6 9 16.1 101.42 28   LegendNANA
13:00 Legend Double Dagger 23.4 19.0 76 8 8 16.1 101.35 30   LegendNANA
14:00 Legend Double Dagger 23.9 18.9 73 11 13 11.3 101.32 31   LegendNANA
15:00 Legend Double Dagger 24.6 19.1 71 LegendMM 8 16.1 101.25 31   LegendNANA
16:00 Legend Double Dagger 24.6 19.1 71 7 11 16.1 101.24 31   LegendNANA
17:00 Legend Double Dagger 24.6 19.3 72 6 4 16.1 101.22 32   LegendNANA
18:00 Legend Double Dagger 22.6 19.7 84   0 16.1 101.19 30   LegendNANA
19:00 Legend Double Dagger 20.3 19.2 93   0 16.1 101.24 27   LegendNANA
20:00 Legend Double Dagger 19.8 19.3 97 35 5 16.1 101.28     LegendNANA
21:00 Legend Double Dagger 21.1 18.2 83 3 18 16.1 101.36 27   LegendNANA
22:00 Legend Double Dagger 20.8 17.8 83 3 17 16.1 101.42 27   LegendNANA
23:00 Legend Double Dagger 19.8 17.2 85 3 15 16.1 101.49     LegendNANA

Notes on Data Quality.

Legend

  • E = Estimated
  • M = Missing
  • NA = Not Available
  • ‡ = Partner data that is not subject to review by the National Climate Archives
Date modified: